Weather History for Spokane Felts, WA

Change the Weather History Date:

Sunday, May 19, 2013

  Actual Average Record
Temperature  
Mean Temperature 59 °F 56 °F  
Max Temperature 68 °F 69 °F 87 °F (2006)
Min Temperature 49 °F 43 °F 33 °F (2003)
Degree Days  
Heating Degree Days 6 9  
Month to date heating degree days 115 225  
Since 1 July heating degree days 5427 6080  
Cooling Degree Days 0 0  
Month to date cooling degree days 26 0  
Year to date cooling degree days 26 0  
Growing Degree Days 8 (Base 50)    
Moisture  
Dew Point 41 °F    
Average Humidity 59    
Maximum Humidity 77    
Minimum Humidity 40    
Precipitation  
Precipitation T in 0.05 in 0.10 in (2007)
Month to date precipitation 0.41 0.98  
Year to date precipitation 4.78 7.12  
Sea Level Pressure  
Sea Level Pressure 30.21 in    
Wind  
Wind Speed 5 mph (SSW)    
Max Wind Speed 14 mph    
Max Gust Speed 18 mph    
Visibility 10 miles    
Events      
T = Trace of Precipitation, MM = Missing Value Source: NWS Daily Summary

Daily Weather History Graph

Daily Weather History Graph

Search for Another Location

Airport:

Trip Planner

Search our weather history database for the weather conditions in past years. The results will help you decide how hot, cold, wet, or windy it might be!

Date:

Astronomy

May. 19, 2013 Rise Set
Actual Time 5:06 AM PDT 8:25 PM PDT
Civil Twilight 4:29 AM PDT 9:03 PM PDT
Nautical Twilight 3:39 AM PDT 9:52 PM PDT
Astronomical Twilight 2:37 AM PDT 10:56 PM PDT
Moon 2:10 PM PDT (5/19) 1:58 AM PDT (5/19)
Length of Visible Light 16h 34m
Length of Day
15h 19m
Waxing Gibbous, 66% of the Moon is Illuminated
May 19
Waxing Gibbous
May 24
Full
May 31
Last Quarter
Jun 8
New
Jun 16
First Quarter

Hourly Weather History & Observations

Time (PDT) Temp. Dew Point Humidity Pressure Visibility Wind Dir Wind Speed Gust Speed Precip Events Conditions
12:53 AM 54.0 °F 39.0 °F 57% 30.14 in 10.0 mi SSW 4.6 mph - N/A   Overcast
1:53 AM 53.1 °F 39.0 °F 59% 30.14 in 10.0 mi SSW 4.6 mph - N/A   Overcast
2:53 AM 53.1 °F 41.0 °F 64% 30.15 in 10.0 mi Calm Calm - N/A   Overcast
3:53 AM 53.1 °F 39.9 °F 61% 30.17 in 10.0 mi SSW 5.8 mph - N/A   Overcast
4:53 AM 53.6 °F 41.0 °F 62% 30.19 in 10.0 mi SSW 6.9 mph - N/A   Overcast
5:53 AM 51.1 °F 39.9 °F 66% 30.20 in 10.0 mi SSW 5.8 mph - N/A   Overcast
6:53 AM 51.1 °F 39.9 °F 66% 30.22 in 10.0 mi SSW 5.8 mph - N/A   Mostly Cloudy
7:53 AM 51.1 °F 39.9 °F 66% 30.23 in 10.0 mi SW 6.9 mph - N/A   Mostly Cloudy
8:53 AM 53.1 °F 39.9 °F 61% 30.24 in 10.0 mi SW 9.2 mph - N/A   Mostly Cloudy
9:53 AM 55.0 °F 39.9 °F 57% 30.24 in 10.0 mi South 10.4 mph - N/A   Mostly Cloudy
10:53 AM 57.9 °F 41.0 °F 53% 30.24 in 10.0 mi South 5.8 mph - N/A   Mostly Cloudy
11:53 AM 60.8 °F 41.0 °F 48% 30.24 in 10.0 mi South 3.5 mph - N/A   Overcast
12:53 PM 64.0 °F 42.1 °F 45% 30.22 in 10.0 mi Calm Calm - N/A   Mostly Cloudy
1:53 PM 64.0 °F 39.9 °F 41% 30.21 in 10.0 mi Calm Calm - N/A   Overcast
2:53 PM 64.9 °F 41.0 °F 42% 30.21 in 10.0 mi South 10.4 mph - N/A   Mostly Cloudy
3:53 PM 64.9 °F 41.0 °F 42% 30.21 in 10.0 mi SW 5.8 mph - 0.00 in   Mostly Cloudy
4:53 PM 66.0 °F 42.1 °F 42% 30.21 in 10.0 mi SW 9.2 mph - N/A   Clear
5:53 PM 64.0 °F 43.0 °F 46% 30.21 in 10.0 mi West 5.8 mph - N/A   Mostly Cloudy
6:53 PM 64.0 °F 42.1 °F 45% 30.21 in 10.0 mi WSW 3.5 mph - N/A   Mostly Cloudy
7:53 PM 60.1 °F 46.0 °F 60% 30.22 in 10.0 mi Calm Calm - N/A   Mostly Cloudy
8:53 PM 59.0 °F 42.8 °F 55% 30.23 in 10.0 mi SE 5.8 mph - N/A   Clear
9:53 PM 55.0 °F 44.1 °F 67% 30.24 in 10.0 mi Calm Calm - N/A   Overcast
10:53 PM 50.0 °F 43.0 °F 77% 30.25 in 10.0 mi ENE 5.8 mph - N/A   Mostly Cloudy
11:53 PM 51.1 °F 44.1 °F 77% 30.25 in 10.0 mi NE 3.5 mph - N/A   Clear